Time,TemperatureF,DewpointF,PressureIn,WindDirection,WindDirectionDegrees,WindSpeedMPH,WindSpeedGustMPH,Humidity,HourlyPrecipIn,Conditions,Clouds,dailyrainin,SoftwareType,DateUTC
2017-06-25 00:00:00,79.3,76.1,30.07,NNE,23,0.0,0.0,90,0.00,,---,0.00,VWS V13.01,2017-06-25 05:00:00,
2017-06-25 00:05:00,79.2,76.0,30.07,NNE,23,0.0,0.0,90,0.00,,---,0.00,VWS V13.01,2017-06-25 05:05:00,
2017-06-25 00:10:00,79.2,76.3,30.07,NNE,23,0.0,0.0,91,0.00,,---,0.00,VWS V13.01,2017-06-25 05:10:00,
2017-06-25 00:15:00,79.0,76.2,30.07,NNE,23,0.0,0.0,91,0.00,,---,0.00,VWS V13.01,2017-06-25 05:15:00,
2017-06-25 00:20:00,78.8,75.9,30.07,NNE,23,0.0,0.0,91,0.00,,---,0.00,VWS V13.01,2017-06-25 05:20:00,
2017-06-25 00:25:00,78.7,75.9,30.06,NNE,23,0.0,0.0,91,0.00,,---,0.00,VWS V13.01,2017-06-25 05:25:00,
2017-06-25 00:30:00,78.6,75.8,30.06,NNE,23,0.0,0.0,91,0.00,,---,0.00,VWS V13.01,2017-06-25 05:30:00,
2017-06-25 00:35:00,78.6,76.1,30.07,NNE,23,0.0,0.0,92,0.00,,---,0.00,VWS V13.01,2017-06-25 05:35:00,
2017-06-25 00:40:00,78.5,76.0,30.06,NNE,23,0.0,0.0,92,0.00,,---,0.00,VWS V13.01,2017-06-25 05:40:00,
2017-06-25 00:45:00,78.4,75.9,30.06,NNE,23,0.0,0.0,92,0.00,,---,0.00,VWS V13.01,2017-06-25 05:45:00,
2017-06-25 00:50:00,78.4,75.9,30.06,NNE,23,0.0,0.0,92,0.00,,---,0.00,VWS V13.01,2017-06-25 05:50:00,
2017-06-25 00:55:00,78.4,76.2,30.06,NNE,23,0.0,0.0,93,0.00,,---,0.00,VWS V13.01,2017-06-25 05:55:00,
2017-06-25 01:00:00,78.4,76.2,30.06,NNE,23,0.0,0.0,93,0.00,,---,0.00,VWS V13.01,2017-06-25 06:00:00,
2017-06-25 01:05:00,78.4,76.2,30.06,NNE,23,0.0,0.0,93,0.00,,---,0.00,VWS V13.01,2017-06-25 06:05:00,
2017-06-25 01:10:00,78.3,76.1,30.06,NNE,23,0.0,0.0,93,0.00,,---,0.00,VWS V13.01,2017-06-25 06:10:00,
2017-06-25 01:15:00,78.3,76.1,30.06,NNE,23,0.0,0.0,93,0.00,,---,0.00,VWS V13.01,2017-06-25 06:15:00,
2017-06-25 01:20:00,78.3,76.1,30.06,NNE,23,0.0,0.0,93,0.00,,---,0.00,VWS V13.01,2017-06-25 06:20:00,
2017-06-25 01:25:00,78.2,76.0,30.06,NNE,23,0.0,0.0,93,0.00,,---,0.00,VWS V13.01,2017-06-25 06:25:00,
2017-06-25 01:30:00,78.2,76.0,30.05,NNE,23,0.0,0.0,93,0.00,,---,0.00,VWS V13.01,2017-06-25 06:30:00,
2017-06-25 01:35:00,78.1,75.9,30.05,NNE,23,0.0,0.0,93,0.00,,---,0.00,VWS V13.01,2017-06-25 06:35:00,
2017-06-25 01:40:00,78.0,75.8,30.06,NNE,23,0.0,0.0,93,0.00,,---,0.00,VWS V13.01,2017-06-25 06:40:00,
2017-06-25 01:45:00,77.9,75.7,30.06,NNE,23,0.0,0.0,93,0.00,,---,0.00,VWS V13.01,2017-06-25 06:45:00,
2017-06-25 01:50:00,77.8,75.6,30.06,NNE,23,0.0,0.0,93,0.00,,---,0.00,VWS V13.01,2017-06-25 06:50:00,
2017-06-25 01:55:00,77.7,75.5,30.06,NNE,23,0.0,0.0,93,0.00,,---,0.00,VWS V13.01,2017-06-25 06:55:00,
2017-06-25 02:00:00,77.6,75.7,30.06,NNE,23,0.0,0.0,94,0.00,,---,0.00,VWS V13.01,2017-06-25 07:00:00,
2017-06-25 02:05:00,77.5,75.6,30.06,NNE,23,0.0,0.0,94,0.00,,---,0.00,VWS V13.01,2017-06-25 07:05:00,
2017-06-25 02:10:00,77.5,75.6,30.05,NNE,23,0.0,0.0,94,0.00,,---,0.00,VWS V13.01,2017-06-25 07:10:00,
2017-06-25 02:15:00,77.5,75.6,30.06,NNE,23,0.0,0.0,94,0.00,,---,0.00,VWS V13.01,2017-06-25 07:15:00,
2017-06-25 02:20:00,77.5,75.6,30.05,NNE,23,0.0,0.0,94,0.00,,---,0.00,VWS V13.01,2017-06-25 07:20:00,
2017-06-25 02:25:00,77.5,75.6,30.06,NNE,23,0.0,0.0,94,0.00,,---,0.00,VWS V13.01,2017-06-25 07:25:00,
2017-06-25 02:30:00,77.5,76.0,30.06,NNE,23,0.0,0.0,95,0.00,,---,0.00,VWS V13.01,2017-06-25 07:30:00,
2017-06-25 02:35:00,77.5,76.0,30.05,NNE,23,0.0,0.0,95,0.00,,---,0.00,VWS V13.01,2017-06-25 07:35:00,
2017-06-25 02:36:00,77.5,76.0,30.05,NNE,23,0.0,0.0,95,0.00,,---,0.00,VWS V13.01,2017-06-25 07:36:00,
2017-06-25 02:41:00,77.4,75.9,30.05,NNE,23,0.0,0.0,95,0.00,,---,0.00,VWS V13.01,2017-06-25 07:41:00,
2017-06-25 02:46:00,77.4,75.9,30.05,NNE,23,0.0,0.0,95,0.00,,---,0.00,VWS V13.01,2017-06-25 07:46:00,
2017-06-25 02:51:00,77.4,75.9,30.05,NNE,23,0.0,0.0,95,0.00,,---,0.00,VWS V13.01,2017-06-25 07:51:00,
2017-06-25 02:56:00,77.4,75.9,30.05,NNE,23,0.0,0.0,95,0.00,,---,0.00,VWS V13.01,2017-06-25 07:56:00,
2017-06-25 03:01:00,77.5,76.0,30.05,NNE,23,0.0,0.0,95,0.00,,---,0.00,VWS V13.01,2017-06-25 08:01:00,
2017-06-25 03:06:00,77.4,75.9,30.05,NNE,23,0.0,0.0,95,0.00,,---,0.00,VWS V13.01,2017-06-25 08:06:00,
2017-06-25 03:11:00,77.4,75.9,30.05,NNE,23,0.0,0.0,95,0.00,,---,0.00,VWS V13.01,2017-06-25 08:11:00,
2017-06-25 03:16:00,77.4,75.9,30.05,NNE,23,0.0,0.0,95,0.00,,---,0.00,VWS V13.01,2017-06-25 08:16:00,
2017-06-25 03:21:00,77.4,75.9,30.05,NNE,23,0.0,0.0,95,0.00,,---,0.00,VWS V13.01,2017-06-25 08:21:00,
2017-06-25 03:26:00,77.3,75.8,30.05,NNE,23,0.0,0.0,95,0.00,,---,0.00,VWS V13.01,2017-06-25 08:26:00,
2017-06-25 03:31:00,77.3,75.8,30.05,NNE,23,0.0,0.0,95,0.00,,---,0.00,VWS V13.01,2017-06-25 08:31:00,
2017-06-25 03:36:00,77.2,75.7,30.05,NNE,23,0.0,0.0,95,0.00,,---,0.00,VWS V13.01,2017-06-25 08:36:00,
2017-06-25 03:41:00,77.1,75.6,30.05,NNE,23,0.0,0.0,95,0.00,,---,0.00,VWS V13.01,2017-06-25 08:41:00,
2017-06-25 03:46:00,77.1,75.6,30.05,NNE,23,0.0,0.0,95,0.00,,---,0.00,VWS V13.01,2017-06-25 08:46:00,
2017-06-25 03:51:00,77.1,75.6,30.05,NNE,23,0.0,0.0,95,0.00,,---,0.00,VWS V13.01,2017-06-25 08:51:00,
2017-06-25 03:56:00,77.0,75.5,30.05,NNE,23,0.0,0.0,95,0.00,,---,0.00,VWS V13.01,2017-06-25 08:56:00,
2017-06-25 04:01:00,76.9,75.4,30.06,NNE,23,0.0,0.0,95,0.00,,---,0.00,VWS V13.01,2017-06-25 09:01:00,
2017-06-25 04:06:00,76.9,75.4,30.06,NNE,23,0.0,0.0,95,0.00,,---,0.00,VWS V13.01,2017-06-25 09:06:00,
2017-06-25 04:11:00,76.9,75.4,30.05,NNE,23,0.0,0.0,95,0.00,,---,0.00,VWS V13.01,2017-06-25 09:11:00,
2017-06-25 04:16:00,76.8,75.3,30.05,NNE,23,0.0,0.0,95,0.00,,---,0.00,VWS V13.01,2017-06-25 09:16:00,
2017-06-25 04:21:00,76.8,75.3,30.05,NNE,23,0.0,0.0,95,0.00,,---,0.00,VWS V13.01,2017-06-25 09:21:00,
2017-06-25 04:26:00,76.8,75.3,30.06,NNE,23,0.0,0.0,95,0.00,,---,0.00,VWS V13.01,2017-06-25 09:26:00,
2017-06-25 04:31:00,76.8,75.6,30.05,NNE,23,0.0,0.0,96,0.00,,---,0.00,VWS V13.01,2017-06-25 09:31:00,
2017-06-25 04:36:00,76.9,75.7,30.05,NNE,23,0.0,0.0,96,0.00,,---,0.00,VWS V13.01,2017-06-25 09:36:00,
2017-06-25 04:41:00,77.0,75.8,30.05,NNE,23,0.0,0.0,96,0.00,,---,0.00,VWS V13.01,2017-06-25 09:41:00,
2017-06-25 04:46:00,77.0,75.8,30.05,NNE,23,0.0,0.0,96,0.00,,---,0.00,VWS V13.01,2017-06-25 09:46:00,
2017-06-25 04:51:00,77.1,75.9,30.05,NNE,23,0.0,0.0,96,0.00,,---,0.00,VWS V13.01,2017-06-25 09:51:00,
2017-06-25 04:56:00,77.2,76.0,30.05,NNE,23,0.0,0.0,96,0.00,,---,0.00,VWS V13.01,2017-06-25 09:56:00,
2017-06-25 05:01:00,77.2,76.0,30.06,NNE,23,0.0,0.0,96,0.00,,---,0.00,VWS V13.01,2017-06-25 10:01:00,
2017-06-25 05:06:00,77.2,76.0,30.06,NNE,23,0.0,0.0,96,0.00,,---,0.00,VWS V13.01,2017-06-25 10:06:00,
2017-06-25 05:11:00,77.2,76.0,30.06,NNE,23,0.0,0.0,96,0.00,,---,0.00,VWS V13.01,2017-06-25 10:11:00,
2017-06-25 05:16:00,77.3,76.1,30.06,NNE,23,0.0,0.0,96,0.00,,---,0.00,VWS V13.01,2017-06-25 10:16:00,
2017-06-25 05:21:00,77.3,76.1,30.06,North,5,0.0,0.0,96,0.00,,---,0.00,VWS V13.01,2017-06-25 10:21:00,
2017-06-25 05:26:00,77.3,76.1,30.06,North,5,0.0,0.0,96,0.00,,---,0.00,VWS V13.01,2017-06-25 10:26:00,
2017-06-25 05:31:00,77.4,76.2,30.06,North,5,0.0,0.0,96,0.00,,---,0.00,VWS V13.01,2017-06-25 10:31:00,
2017-06-25 05:36:00,77.3,76.1,30.06,North,5,0.0,0.0,96,0.00,,---,0.00,VWS V13.01,2017-06-25 10:36:00,
2017-06-25 05:41:00,77.3,76.1,30.06,North,5,0.0,0.0,96,0.00,,---,0.00,VWS V13.01,2017-06-25 10:41:00,
2017-06-25 05:46:00,77.3,76.1,30.06,North,5,0.0,0.0,96,0.00,,---,0.00,VWS V13.01,2017-06-25 10:46:00,
2017-06-25 05:51:00,77.3,76.1,30.06,North,5,0.0,0.0,96,0.00,,---,0.00,VWS V13.01,2017-06-25 10:51:00,
2017-06-25 05:56:00,77.3,76.1,30.06,North,5,0.0,0.0,96,0.00,,---,0.00,VWS V13.01,2017-06-25 10:56:00,
2017-06-25 05:57:00,77.3,76.1,30.06,North,5,0.0,0.0,96,0.00,,---,0.00,VWS V13.01,2017-06-25 10:57:00,
2017-06-25 06:02:00,77.3,76.1,30.06,North,5,0.0,0.0,96,0.00,,---,0.00,VWS V13.01,2017-06-25 11:02:00,
2017-06-25 06:07:00,77.3,76.1,30.07,North,5,0.0,0.0,96,0.00,,---,0.00,VWS V13.01,2017-06-25 11:07:00,
2017-06-25 06:12:00,77.3,76.1,30.07,North,5,0.0,0.0,96,0.00,,---,0.00,VWS V13.01,2017-06-25 11:12:00,
2017-06-25 06:17:00,77.3,76.1,30.07,North,5,0.0,0.0,96,0.00,,---,0.00,VWS V13.01,2017-06-25 11:17:00,
2017-06-25 06:22:00,77.3,76.1,30.06,North,5,0.0,0.0,96,0.00,,---,0.00,VWS V13.01,2017-06-25 11:22:00,
2017-06-25 06:27:00,77.3,76.1,30.07,North,5,0.0,0.0,96,0.00,,---,0.00,VWS V13.01,2017-06-25 11:27:00,
2017-06-25 06:32:00,77.3,76.1,30.06,North,5,0.0,0.0,96,0.00,,---,0.00,VWS V13.01,2017-06-25 11:32:00,
2017-06-25 06:37:00,77.3,76.1,30.07,North,5,0.0,0.0,96,0.00,,---,0.00,VWS V13.01,2017-06-25 11:37:00,
2017-06-25 06:42:00,77.3,76.1,30.07,North,5,0.0,0.0,96,0.00,,---,0.00,VWS V13.01,2017-06-25 11:42:00,
2017-06-25 06:47:00,77.4,76.5,30.07,North,5,0.0,0.0,97,0.00,,---,0.00,VWS V13.01,2017-06-25 11:47:00,
2017-06-25 06:52:00,77.4,76.2,30.07,North,5,0.0,0.0,96,0.00,,---,0.00,VWS V13.01,2017-06-25 11:52:00,
2017-06-25 06:57:00,77.5,76.6,30.07,North,5,0.0,0.0,97,0.00,,---,0.00,VWS V13.01,2017-06-25 11:57:00,
2017-06-25 07:02:00,77.6,76.7,30.07,North,5,0.0,0.0,97,0.00,,---,0.00,VWS V13.01,2017-06-25 12:02:00,
2017-06-25 07:07:00,77.7,76.8,30.08,North,5,0.0,0.0,97,0.00,,---,0.00,VWS V13.01,2017-06-25 12:07:00,
2017-06-25 07:12:00,77.8,76.9,30.07,North,5,0.0,0.0,97,0.00,,---,0.00,VWS V13.01,2017-06-25 12:12:00,
2017-06-25 07:17:00,77.9,77.0,30.08,North,5,0.0,0.0,97,0.00,,---,0.00,VWS V13.01,2017-06-25 12:17:00,
2017-06-25 07:22:00,78.1,77.2,30.08,North,5,0.0,0.0,97,0.00,,---,0.00,VWS V13.01,2017-06-25 12:22:00,
2017-06-25 07:27:00,78.4,77.5,30.08,North,5,0.0,0.0,97,0.00,,---,0.00,VWS V13.01,2017-06-25 12:27:00,
2017-06-25 07:32:00,78.8,77.9,30.09,North,5,0.0,0.0,97,0.00,,---,0.00,VWS V13.01,2017-06-25 12:32:00,
2017-06-25 07:37:00,79.2,78.0,30.08,North,5,0.0,0.0,96,0.00,,---,0.00,VWS V13.01,2017-06-25 12:37:00,
2017-06-25 07:42:00,79.4,78.2,30.09,North,5,0.0,3.0,96,0.00,,---,0.00,VWS V13.01,2017-06-25 12:42:00,
2017-06-25 07:47:00,79.8,78.6,30.09,North,5,0.0,4.0,96,0.01,,---,0.01,VWS V13.01,2017-06-25 12:47:00,
2017-06-25 07:52:00,80.2,78.3,30.09,North,5,0.0,0.0,94,0.01,,---,0.01,VWS V13.01,2017-06-25 12:52:00,
2017-06-25 07:57:00,80.6,78.4,30.09,North,5,0.0,1.0,93,0.01,,---,0.01,VWS V13.01,2017-06-25 12:57:00,
2017-06-25 08:02:00,81.1,78.9,30.09,North,5,3.0,4.0,93,0.01,,---,0.01,VWS V13.01,2017-06-25 13:02:00,
2017-06-25 08:07:00,81.4,78.5,30.09,North,5,0.0,4.0,91,0.01,,---,0.01,VWS V13.01,2017-06-25 13:07:00,
2017-06-25 08:12:00,81.6,78.1,30.09,North,5,7.0,7.0,89,0.01,,---,0.01,VWS V13.01,2017-06-25 13:12:00,
2017-06-25 08:17:00,81.7,78.2,30.10,North,10,2.0,7.0,89,0.01,,---,0.01,VWS V13.01,2017-06-25 13:17:00,
2017-06-25 08:22:00,81.9,78.3,30.10,North,9,0.0,0.0,89,0.01,,---,0.01,VWS V13.01,2017-06-25 13:22:00,
2017-06-25 08:32:00,82.0,78.1,30.10,North,9,0.0,1.0,88,0.01,,---,0.01,VWS V13.01,2017-06-25 13:32:00,
2017-06-25 08:37:00,82.1,78.2,30.09,North,9,0.0,2.0,88,0.01,,---,0.01,VWS V13.01,2017-06-25 13:37:00,
2017-06-25 08:42:00,82.1,78.5,30.10,North,9,0.0,1.0,89,0.01,,---,0.01,VWS V13.01,2017-06-25 13:42:00,
2017-06-25 08:43:00,82.2,78.6,30.10,North,9,0.0,1.0,89,0.01,,---,0.01,VWS V13.01,2017-06-25 13:43:00,
2017-06-25 08:48:00,82.3,78.4,30.10,North,11,1.0,6.0,88,0.01,,---,0.01,VWS V13.01,2017-06-25 13:48:00,
2017-06-25 08:53:00,82.3,78.1,30.10,NNE,15,0.0,5.0,87,0.00,,---,0.01,VWS V13.01,2017-06-25 13:53:00,
2017-06-25 08:58:00,82.4,78.1,30.10,NNE,15,0.0,5.0,87,0.00,,---,0.01,VWS V13.01,2017-06-25 13:58:00,
2017-06-25 09:03:00,82.7,78.4,30.10,NE,40,2.0,5.0,87,0.00,,---,0.01,VWS V13.01,2017-06-25 14:03:00,
2017-06-25 09:08:00,83.2,78.9,30.10,NNE,24,3.0,9.0,87,0.00,,---,0.01,VWS V13.01,2017-06-25 14:08:00,
2017-06-25 09:13:00,83.9,78.9,30.10,North,5,0.0,7.0,85,0.00,,---,0.01,VWS V13.01,2017-06-25 14:13:00,
2017-06-25 09:18:00,84.5,79.1,30.11,North,5,0.0,7.0,84,0.00,,---,0.01,VWS V13.01,2017-06-25 14:18:00,
2017-06-25 09:23:00,85.1,79.0,30.10,NNE,17,1.0,6.0,82,0.00,,---,0.01,VWS V13.01,2017-06-25 14:23:00,
2017-06-25 09:28:00,85.7,79.6,30.11,NNE,12,0.0,6.0,82,0.00,,---,0.01,VWS V13.01,2017-06-25 14:28:00,
2017-06-25 09:33:00,86.3,79.0,30.11,North,11,0.0,6.0,79,0.00,,---,0.01,VWS V13.01,2017-06-25 14:33:00,
2017-06-25 09:38:00,86.9,79.2,30.10,North,9,0.0,6.0,78,0.00,,---,0.01,VWS V13.01,2017-06-25 14:38:00,
2017-06-25 09:43:00,87.3,79.6,30.11,NNE,19,0.0,6.0,78,0.00,,---,0.01,VWS V13.01,2017-06-25 14:43:00,
2017-06-25 09:48:00,87.5,79.4,30.11,North,10,5.0,6.0,77,0.00,,---,0.01,VWS V13.01,2017-06-25 14:48:00,
2017-06-25 09:53:00,87.7,80.0,30.11,North,10,0.0,1.0,78,0.00,,---,0.01,VWS V13.01,2017-06-25 14:53:00,
2017-06-25 09:58:00,87.8,78.9,30.11,ENE,64,0.0,6.0,75,0.00,,---,0.01,VWS V13.01,2017-06-25 14:58:00,
2017-06-25 10:03:00,87.7,79.6,30.11,ENE,64,0.0,0.0,77,0.00,,---,0.01,VWS V13.01,2017-06-25 15:03:00,
2017-06-25 10:08:00,87.3,79.6,30.11,ENE,64,0.0,0.0,78,0.00,,---,0.01,VWS V13.01,2017-06-25 15:08:00,
2017-06-25 10:13:00,87.2,79.1,30.11,ENE,64,0.0,1.0,77,0.00,,---,0.01,VWS V13.01,2017-06-25 15:13:00,
2017-06-25 10:18:00,87.5,78.6,30.11,NNE,13,4.0,9.0,75,0.00,,---,0.01,VWS V13.01,2017-06-25 15:18:00,
2017-06-25 10:23:00,87.9,79.0,30.11,North,360,1.0,7.0,75,0.00,,---,0.01,VWS V13.01,2017-06-25 15:23:00,
2017-06-25 10:28:00,88.1,78.8,30.11,ENE,76,0.0,7.0,74,0.00,,---,0.01,VWS V13.01,2017-06-25 15:28:00,
2017-06-25 10:33:00,88.1,78.4,30.11,NNE,16,0.0,6.0,73,0.00,,---,0.01,VWS V13.01,2017-06-25 15:33:00,
2017-06-25 10:38:00,88.6,78.8,30.11,NNE,24,3.0,9.0,73,0.00,,---,0.01,VWS V13.01,2017-06-25 15:38:00,